Tracking 25648 objects as of 17-May-2022
HD Live streaming from Space Station
objects crossing your sky now

FLOCK 3P 45

Track FLOCK 3P 45 now!
10-day predictions
FLOCK 3P 45 is classified as:


NORAD ID: 42005
Int'l Code: 2017-008BK
Perigee: 444.2 km
Apogee: 448.4 km
Inclination: 97.3 °
Period: 93.4 minutes
Semi major axis: 6817 km
RCS: Unknown
Launch date: February 15, 2017
Source: United States (US)
Launch site: SRIHARIKOTA (SRI)
aabbcc
Your satellite tracking list
Your tracking list is empty




NASA's NSSDC Master Catalog

Two Line Element Set (TLE):
1 42005U 17008BK  22136.43941725  .00047809  00000-0  11051-2 0  9994
2 42005  97.2826 208.7808 0003080 339.4856  20.6267 15.42350811292522
Source of the keplerian elements: AFSPC